User: anonymous   Login
Location: Unspecified
(0.0000°N, 0.0000°E)
Time: 01:08:07
(UTC+00:00)
Language:

SO-67 - Orbit

View from above orbital plane
View from above orbital plane
View from above satellite
View from above satellite

Ground track
Ground track

The orbit data is extracted from the following two-line orbital elements,

1 35870U 09049F   14304.46761192  .00014526  00000-0  42396-3 0  6513
2 35870 097.1542 321.5631 0001822 045.5224 060.5471 15.35428349284943
Epoch (UTC): 31 October 2014 11:13:21
Eccentricity: 0.0001822
inclination: 97.1542°
perigee height: 458 km
apogee height: 461 km
right ascension of ascending node: 321.5631°
argument of perigee: 45.5224°
revolutions per day: 15.35428349
mean anomaly at epoch: 60.5471°
orbit number at epoch: 28494

The dashed part of the orbit path shows where the satellite is in the earth's shadow,  

DLR